This is the latest recevied weather packets stored in our database for station/object WE8L. If no packets are shown the sender has not sent any weather packets the latest 10 day(s).
| Time | Temp. | Humidity | Pressure | Rain* | Wind** | Luminosity | Snow |
|---|---|---|---|---|---|---|---|
| 1777905091 | 17.22° C | 62% | 1011.5 hPa | 0 mm | - | 350 W/m² | - |
| 1777904788 | 17.22° C | 62% | 1011.5 hPa | 0 mm | - | 202 W/m² | - |
| 1777904485 | 16.67° C | 64% | 1011.2 hPa | 0 mm | - | 310 W/m² | - |
| 1777904181 | 16.67° C | 63% | 1011.5 hPa | 0 mm | - | 63 W/m² | - |
| 1777903879 | 16.67° C | 64% | 1011.6 hPa | 0 mm | - | 258 W/m² | - |
| 1777903575 | 16.67° C | 64% | 1011.6 hPa | 0 mm | - | 272 W/m² | - |
| 1777903271 | 16.11° C | 64% | 1011.6 hPa | 0 mm | - | 176 W/m² | - |
| 1777902968 | 16.11° C | 64% | 1011.7 hPa | 0 mm | - | 293 W/m² | - |
| 1777902664 | 15.56° C | 64% | 1011.8 hPa | 0 mm | - | 162 W/m² | - |
| 1777902362 | 15.56° C | 67% | 1011.9 hPa | 0 mm | - | 216 W/m² | - |
| 1777902058 | 15.56° C | 66% | 1011.9 hPa | 0 mm | - | 139 W/m² | - |
| 1777901757 | 15° C | 67% | 1012 hPa | 0 mm | - | 146 W/m² | - |
| 1777901454 | 15° C | 67% | 1011.8 hPa | 0 mm | - | 204 W/m² | - |
| 1777901151 | 14.44° C | 68% | 1011.8 hPa | 0 mm | - | 119 W/m² | - |
| 1777900849 | 14.44° C | 68% | 1011.8 hPa | 0 mm | - | 72 W/m² | - |
| 1777900546 | 14.44° C | 67% | 1011.8 hPa | 0 mm | - | 54 W/m² | - |
| 1777900243 | 14.44° C | 68% | 1011.7 hPa | 0 mm | - | 59 W/m² | - |
| 1777899939 | 14.44° C | 67% | 1011.8 hPa | 0 mm | - | 59 W/m² | - |
| 1777899636 | 14.44° C | 67% | 1011.9 hPa | 0 mm | - | 57 W/m² | - |
| 1777899334 | 13.89° C | 68% | 1011.8 hPa | 0 mm | - | 60 W/m² | - |
| 1777899031 | 13.89° C | 68% | 1011.9 hPa | 0 mm | - | 57 W/m² | - |
| 1777898728 | 13.89° C | 69% | 1012 hPa | 0 mm | - | 47 W/m² | - |
| 1777898426 | 13.89° C | 68% | 1011.8 hPa | 0 mm | - | 46 W/m² | - |
| 1777898123 | 13.89° C | 68% | 1011.9 hPa | 0 mm | - | 41 W/m² | - |
| 1777897820 | 13.89° C | 68% | 1011.9 hPa | 0 mm | - | 35 W/m² | - |
* Rain latest hour (hover to see other rain measurements)
** Current wind speed in m/s (hover to see current wind gust speed)